Regional Weather Roundup
Issued by NWS

Home | Current Version | Previous Version | Text Only | Print | Product List | Glossary Off
Versions: 1 2 3 4 5 6 7 8 9 10 11 12 13 14 15 16 17 18 19 20 21 22 23 24 25 26 27 28 29 30 31 32 33 34 35 36 37 38 39 40 41 42 43 44 45 46 47 48 49 50

000
ASUS43 KOAX 281010
RWRNE

WEATHER ROUNDUP FOR NEBRASKA
NATIONAL WEATHER SERVICE OMAHA NE
500 AM CDT TUE APR 28 2015

NOTES: SATELLITE DATA IS BEING USED TO AUGMENT CLOUD COVER ABOVE
       12000 FEET.
       "FAIR" INDICATES FEW OR NO CLOUDS BELOW 12,000 FEET WITH NO
       SIGNIFICANT WEATHER AND/OR OBSTRUCTIONS TO VISIBILITY.

  * THESE STATIONS DO NOT REPORT WEATHER SUCH AS RAIN...SNOW OR FOG.

NEZ001>004-019>022-054>056-281100-
NEBRASKA PANHANDLE

CITY           SKY/WX    TMP DP  RH WIND       PRES   REMARKS
SCOTTSBLUFF    CLOUDY    43  40  89 E3        30.34S
ALLIANCE       CLOUDY    42  40  92 CALM      30.33F
CHADRON        CLOUDY    45  42  89 CALM      30.35R
KIMBALL        CLOUDY    42  41  97 NW3       30.32S
SIDNEY         CLOUDY    44  41  89 N7        30.34R
$$

NEZ057>060-069>072-079>082-281100-
SOUTHWEST NEBRASKA

CITY           SKY/WX    TMP DP  RH WIND       PRES   REMARKS
NORTH PLATTE   CLEAR     41  38  89 W6        30.30R
IMPERIAL       PTCLDY    43  38  82 CALM      30.31R
LEXINGTON      CLEAR     44  41  88 N13       30.26S
MCCOOK         CLEAR     43  39  86 N5        30.27R
OGALLALA       PTCLDY    44  40  85 CALM      30.32R
$$

NEZ005>010-023>029-035>040-094-281100-
NORTH CENTRAL NEBRASKA

CITY           SKY/WX    TMP DP  RH WIND       PRES   REMARKS
VALENTINE      CLOUDY    39  37  92 NW5       30.32F
AINSWORTH      PTCLDY    42  40  93 NW7       30.31S
BROKEN BOW     CLEAR     44  40  85 N15       30.26S
O`NEILL        CLEAR     43  41  95 NW12      30.27R FOG
ORD            CLEAR     43  39  86 NW8       30.25S
THEDFORD       CLOUDY    45  41  88 N12       30.32S
$$

NEZ041-046>049-061>064-073>077-083>087-281100-
SOUTH CENTRAL NEBRASKA

CITY           SKY/WX    TMP DP  RH WIND       PRES   REMARKS
GRAND ISLAND   CLEAR     44  39  82 N10       30.24R
AURORA         CLEAR     42  37  83 N10       30.22S
HASTINGS       FAIR      43  37  79 N9        30.22S
HEBRON         MOCLDY    39  33  78 CALM      30.21R
HOLDREGE       PTCLDY    43  39  85 N7        30.25R
KEARNEY *      CLEAR     45  37  76 NW8       30.25R
YORK           PTCLDY    41  34  75 N8        30.22R
$$

NEZ011>018-030>034-042>045-281100-
NORTHEAST NEBRASKA

CITY           SKY/WX    TMP DP  RH WIND       PRES   REMARKS
NORFOLK        CLEAR     44  39  82 NW8       30.22S
ALBION         CLEAR     43  38  85 NW9       30.24S
BLAIR          CLEAR     49  31  50 N8        30.18S
COLUMBUS *     CLEAR     43  30  61 NW6       30.23R
FREMONT        CLEAR     39  35  84 W6        30.19S WCI  35
TEKAMAH        CLEAR     39  32  76 N5        30.19S
WAYNE          CLEAR     35  28  74 CALM      30.23R
$$

NEZ050>053-065>068-078-088>093-281100-
SOUTHEAST NEBRASKA

CITY           SKY/WX    TMP DP  RH WIND       PRES   REMARKS
LINCOLN        CLEAR     40  35  83 CALM      30.20R
OMAHA EPPLEY   PTCLDY    40  36  86 N6        30.18R
BEATRICE       PTCLDY    38  35  86 NW5       30.18S WCI  35
FALLS CITY     PTCLDY    44  35  70 NW3       30.16R
NEBRASKA CITY  CLEAR     48  29  48 N7        30.17S
PLATTSMOUTH    CLEAR     47  33  59 NW6       30.18S
$$

NEZ044-045-051>053-067-281100-
OMAHA AREA

CITY           SKY/WX    TMP DP  RH WIND       PRES   REMARKS
OMAHA EPPLEY   PTCLDY    40  36  86 N6        30.18R
BLAIR          CLEAR     49  31  50 N8        30.18S
FREMONT        CLEAR     39  35  84 W6        30.19S WCI  35
MILLARD        CLEAR     44  37  79 CALM      30.18S
OFFUTT AFB     CLEAR     42  37  84 NW2       30.17R
PLATTSMOUTH    CLEAR     47  33  59 NW6       30.18S
WAHOO          FAIR      42  33  69 N8        30.19S
$$


USA.gov is the U.S. government's official web portal to all federal, state and local government web resources and services.